Location: Monte
(45.5667°N, 10.8500°E)
Time: 01:18:07
(UTC+00:00)

Daily predictions for brighter satellites

Satellite Brightness Start Highest point End
(mag) Time Altitude Azimuth Time Altitude Azimuth Time Altitude Azimuth
STARLINK-1209 4.5 00:00:47 10° NW 00:03:45 36° NNE 00:06:42 10° E
ATLAS CENTAUR R/B 3.9 00:03:28 10° NNW 00:05:27 21° NE 00:08:38 10° E
Nadezhda 2 Rocket 4.4 00:04:33 45° S 00:06:37 86° E 00:12:46 10° N
GEOS 3 Rocket 3.5 00:07:38 39° SSE 00:09:40 83° SW 00:14:59 10° NW
Cosmos 1726 3.9 00:08:36 10° NW 00:10:54 21° WNW 00:10:54 21° WNW
Cosmos 2058 Rocket 3.1 00:08:29 10° N 00:12:55 75° E 00:13:46 56° SSE
STARLINK-1235 4.4 00:10:41 10° NW 00:13:36 37° NNE 00:16:31 10° E
COSMOS 2455 2.8 00:11:40 45° SSW 00:13:41 87° ESE 00:19:44 10° NNE
Meteor 1-29 3.2 00:10:28 10° N 00:13:32 64° NNW 00:13:32 64° NNW
Cosmos 2228 3.2 00:11:14 10° NNW 00:15:23 52° W 00:15:32 52° WSW
SJ 16-02 4.0 00:13:27 10° NNE 00:16:28 18° NE 00:19:28 10° E
SL-14 R/B 3.2 00:18:39 68° SE 00:18:53 70° E 00:22:44 10° NNE
Cosmos 1953 4.3 00:17:01 10° NW 00:19:26 17° W 00:19:26 17° W
IRAS Rocket 4.2 00:17:53 41° SSE 00:19:57 85° WSW 00:25:34 10° NNW
Cosmos 1340 Rocket 4.4 00:18:16 10° NW 00:21:08 23° W 00:21:08 23° W
Okean 1-7 Rocket 3.5 00:22:03 62° SSW 00:22:49 88° W 00:27:20 10° N
Cosmos 1174 3.5 00:23:33 67° NNW 00:23:33 67° NNW 00:26:52 10° NNE
Cosmos 921 Rocket 3.4 00:23:34 45° SE 00:24:13 50° ESE 00:28:23 10° NNE
Cosmos 1300 2.7 00:20:51 10° N 00:24:40 72° E 00:25:04 64° SE
BREEZE M DEB (TANK) 3.2 00:26:49 39° NE 00:26:49 39° NE 00:29:33 10° E
COSMOS 2487 3.8 00:25:07 10° NW 00:27:18 28° WNW 00:27:18 28° WNW
Meteor 2-16 Rocket 4.5 00:27:43 37° S 00:30:19 76° E 00:36:27 10° NNE
Cosmos 1626 Rocket 4.2 00:29:36 37° SE 00:30:44 47° E 00:34:54 10° NNE
SAR-Lupe-3 4.5 00:29:39 10° NNE 00:33:13 74° ESE 00:33:21 72° SE
Cosmos 2219 4.2 00:28:00 10° NNW 00:33:26 44° ENE 00:38:48 10° SE
Cosmos 1626 2.0 00:34:31 70° WSW 00:34:40 71° W 00:38:24 10° N
STARLINK-60 3.2 00:36:27 67° NNE 00:36:27 67° NNE 00:39:23 10° NE
FALCON 9 R/B 3.5 00:38:25 32° SSW 00:41:18 44° SSE 01:00:26 10° ESE
Nadezhda 1 Rocket 4.0 00:36:04 10° N 00:42:16 79° E 00:45:52 27° SSE
MOZ.5/SAFIR/RUBIN 5/SL-8 3.7 00:44:16 39° SSE 00:46:00 88° ENE 00:50:39 10° NNW
UNK 4.0 00:44:01 29° SSE 00:46:17 67° ENE 00:50:52 10° N
Cosmos 220 Rocket 4.1 00:46:16 46° S 00:47:23 66° ESE 00:51:48 10° NNE
Cosmos 2297 Rocket 3.1 00:43:39 10° NNW 00:49:06 47° ENE 00:54:33 10° SE
SL-4 R/B 2.4 00:49:13 34° WSW 00:51:17 81° NNW 00:56:03 10° ENE
Cosmos 1812 Rocket 4.1 00:47:42 10° N 00:52:08 56° ENE 00:54:30 26° SSE
Cosmos 1437 2.7 00:52:48 64° NW 00:52:48 64° NW 00:55:33 10° N
CZ-4B R/B 4.2 00:47:38 10° NNE 00:52:38 49° E 00:55:16 26° SSE
ATLAS CENTAUR R/B 2.2 00:56:56 31° W 00:58:33 45° NW 01:02:33 10° NNE
SL-16 R/B 2.5 00:56:01 24° SSE 01:00:01 86° WSW 01:06:14 10° NNW
Cosmos 1777 Rocket 4.4 00:55:35 10° NNW 01:00:32 43° WSW 01:01:54 36° SW
Timation 2 Rocket 3.9 00:54:46 10° NNW 01:01:02 62° WSW 01:04:30 26° S
NOSS 3-4 (A) 4.3 00:57:31 17° WSW 01:01:45 42° NW 01:07:51 10° NNE
NOSS 3-4 (C) 4.3 00:57:37 18° WSW 01:01:51 43° NW 01:07:58 10° NNE
FALCON 9 DEB 3.2 01:02:08 57° SSE 01:02:14 58° SE 01:05:39 10° ENE
BREEZE-M R/B 2.8 01:01:08 43° SW 01:02:19 64° SSE 01:05:21 10° ENE
Cosmos 1602 Rocket 3.5 01:01:58 40° S 01:03:27 82° E 01:07:48 10° N
OE (NEXTSAT) 4.2 01:03:39 67° SSW 01:03:55 71° SSE 01:07:24 10° E
STARLINK-1352 4.5 01:04:09 27° SE 01:04:09 27° SE 01:07:07 10° ENE
STARLINK-29 2.8 01:04:34 72° W 01:04:50 83° NNW 01:08:02 10° ENE
STARLINK-1368 4.4 01:06:13 28° SE 01:06:14 28° SE 01:09:19 10° ENE
Cosmos 1455 3.2 01:03:28 10° N 01:07:04 43° ENE 01:09:23 19° SE
STARLINK-1369 4.3 01:08:12 29° SE 01:08:16 29° SE 01:11:21 10° ENE
ATLAS 3B R/B 2.9 01:01:49 10° NW 01:08:20 49° WSW 01:12:43 22° S
BREEZE-M DEB (TANK) 3.7 01:09:30 20° ESE 01:09:30 20° ESE 01:10:33 10° E
STARLINK-1372 4.2 01:10:25 31° SE 01:10:35 31° SE 01:13:43 10° ENE
IRS-1D 4.3 01:06:40 10° NNE 01:11:51 49° E 01:15:16 20° SSE
CENTAUR R/B 4.0 01:05:10 10° NW 01:11:59 29° WSW 01:14:47 24° SW
STARLINK-1378 4.2 01:12:32 32° SSE 01:12:46 32° SE 01:15:58 10° ENE
STARLINK-1329 4.1 01:12:59 32° SSE 01:13:15 32° SE 01:16:28 10° ENE
GP-B 3.7 01:08:59 10° N 01:13:20 52° E 01:16:10 20° SSE
BREEZE-M DEB (TANK) 2.1 01:12:39 31° WNW 01:13:26 44° NNW 01:15:40 10° ENE
STARLINK-1365 4.0 01:13:46 34° SSE 01:14:04 34° SE 01:17:19 10° ENE
Meteor 2-1 Rocket 4.1 01:08:57 10° NNW 01:14:29 83° W 01:18:03 23° S
STARLINK-1379 4.1 01:14:39 33° SSE 01:14:58 33° SE 01:18:12 10° ENE
STARLINK-1362 4.1 01:15:10 33° SSE 01:15:31 34° SE 01:18:46 10° ENE
Cosmos 1745 Rocket 4.1 01:12:45 29° SSW 01:15:55 63° W 01:22:01 10° N
Cosmos-2242 4.0 01:12:36 10° N 01:16:42 43° ENE 01:20:32 11° SSE
STARLINK-1373 4.0 01:17:22 34° SSE 01:17:48 35° SE 01:21:04 10° ENE
STARLINK-1205 4.4 01:15:34 10° NW 01:19:39 53° NNE 01:23:42 10° ESE
STARLINK-1390 3.9 01:19:27 35° SSE 01:19:57 37° SE 01:23:15 10° ENE
RESURS DK-1 3.1 01:19:17 29° WSW 01:20:52 42° WNW 01:24:50 10° NNE
Cosmos 2181 Rocket 4.4 01:17:00 10° N 01:23:24 65° E 01:29:47 10° SSE
STARLINK-1218 4.3 01:20:32 10° NW 01:24:38 57° NNE 01:28:42 10° ESE
Cosmos 1356 Rocket 3.9 01:20:46 10° NNW 01:24:41 41° W 01:25:48 34° SW
Cosmos 2227 Rocket 2.4 01:19:06 10° NNW 01:24:49 75° ENE 01:30:28 10° SSE
Cosmos 1763 Rocket 4.0 01:23:45 21° S 01:26:55 51° ESE 01:31:51 10° NNE
Cosmos 1697 Rocket 3.7 01:23:11 16° SSE 01:27:10 38° ESE 01:32:22 10° NE
CZ-2D R/B 2.2 01:22:12 10° N 01:27:25 66° WNW 01:30:15 27° SW
Cosmos 1703 3.9 01:26:47 22° SSE 01:29:04 52° E 01:32:56 10° NNE
STARLINK-1254 4.2 01:25:31 10° NW 01:29:38 60° NNE 01:33:44 10° ESE
ADEOS II 2.6 01:25:00 10° NNE 01:30:09 54° E 01:34:07 17° S
ATLAS 2AS CENTAUR R/B 4.1 01:23:36 10° W 01:30:57 38° NW 01:38:12 10° NNE
CZ-4C R/B 4.3 01:30:46 29° SW 01:31:45 33° W 01:35:40 10° NNW
STARLINK-1231 4.1 01:30:30 10° NW 01:34:38 64° NNE 01:38:45 10° ESE
STARLINK-1228 3.3 01:33:05 10° WNW 01:36:18 44° SW 01:39:29 10° SE
Resurs 1-4 Rocket 2.4 01:32:00 10° N 01:37:08 53° WNW 01:40:11 24° SW
STARLINK-1234 3.3 01:34:31 10° WNW 01:41:18 - SE 01:37:02 39° WSW
STARLINK-1212 2.8 01:35:49 10° WNW 01:38:53 58° SW 01:41:56 10° SE
STARLINK-1105 2.8 01:36:18 10° WNW 01:39:21 57° SW 01:42:23 10° SE
USA 81 4.2 01:36:19 25° SSW 01:39:21 61° W 01:44:36 10° N
STARLINK-1232 3.9 01:35:29 10° NW 01:39:38 68° NNE 01:43:45 10° ESE
STARLINK-1209 4.0 01:36:48 10° WNW 01:44:32 - SE 01:38:42 28° W
STARLINK-1247 2.8 01:37:13 10° WNW 01:40:16 56° SW 01:43:20 10° SE
STARLINK-1227 2.8 01:37:41 10° WNW 01:40:43 55° SW 01:43:45 10° SE
STARLINK-52 3.6 01:39:41 24° W 01:41:19 49° NNW 01:44:27 10° NE
STARLINK-1226 2.9 01:38:32 10° WNW 01:41:36 54° SW 01:44:38 10° SE
Cosmos 1758 Rocket 3.5 01:39:23 25° SSW 01:41:51 83° W 01:46:14 10° N
ARIANE 5 R/B 3.4 01:37:25 10° NNE 01:42:15 43° E 01:46:54 10° S
STARLINK-1215 2.9 01:39:28 10° WNW 01:42:32 53° SW 01:45:35 10° SE
STARLINK-1217 2.9 01:41:15 10° WNW 01:44:18 51° SW 01:47:20 10° SE
H-2A R/B 3.8 01:40:31 10° SE 01:44:22 33° ENE 01:48:19 10° N
STARLINK-1208 3.8 01:40:26 10° NW 01:44:35 73° NNE 01:48:44 10° ESE
NPP 4.0 01:39:19 10° N 01:44:35 54° WNW 01:47:57 22° SW
STARLINK-1229 2.9 01:42:10 10° WNW 01:45:13 50° SW 01:48:14 10° SE
STARLINK-1270 3.0 01:43:03 10° WNW 01:46:05 49° SW 01:49:06 10° SE
STARLINK-1189 3.0 01:44:53 10° WNW 01:47:54 47° SW 01:50:56 10° SE
STARLINK-1188 3.0 01:45:46 10° WNW 01:48:48 46° SW 01:51:48 10° SE
STARLINK-1235 3.4 01:46:32 10° WNW 01:49:25 35° SW 01:52:16 10° SSE
STARLINK-1271 3.7 01:45:26 10° WNW 01:49:35 78° NNE 01:53:44 10° ESE
STARLINK-1187 3.2 01:46:55 10° WNW 01:49:51 40° SW 01:52:47 10° SSE
Cosmos 1898 Rocket 3.5 01:44:36 10° NNW 01:49:58 80° WSW 01:55:16 10° SSE
Meteor 1-21 Rocket 4.4 01:46:49 22° SSW 01:50:25 60° WNW 01:56:03 10° N
STARLINK-1191 3.1 01:48:15 10° WNW 01:51:15 44° SW 01:54:12 10° SE
Lacrosse 4 Rocket 3.0 01:47:36 10° NNW 01:51:43 38° NE 01:55:41 10° ESE
STARLINK-1221 3.1 01:49:08 10° WNW 01:52:06 43° SW 01:55:04 10° SE
Cosmos 1656 3.7 01:48:20 21° SSW 01:52:11 79° WNW 01:57:51 10° NNE
STARLINK-1222 3.1 01:50:02 10° WNW 01:53:00 42° SW 01:55:57 10° SSE
STARLINK-1214 3.2 01:50:57 10° WNW 01:53:54 41° SW 01:56:50 10° SSE
CZ-4C R/B 2.5 01:50:43 19° S 01:54:11 53° ESE 01:59:50 10° NE
STARLINK-1154 3.6 01:50:25 10° WNW 01:54:35 83° NNE 01:58:44 10° ESE
Cosmos 2084 4.2 01:52:18 19° WSW 01:55:14 46° NW 01:59:34 10° NNE
SJ 16-02 1.4 01:51:04 10° NNW 01:55:25 56° WSW 01:59:17 13° S
Cosmos 2285 Rocket 4.2 01:49:04 10° NNW 01:55:29 79° ENE 02:01:50 10° SSE
IDEFIX/ARIANE 42P 4.2 01:50:55 10° NNE 01:55:34 31° E 02:00:10 10° SSE
Cosmos 468 Rocket 3.9 01:52:22 21° SSW 01:55:49 77° WNW 02:00:58 10° NNE
Cosmos 1570 Rocket 4.4 01:53:01 15° S 01:57:25 60° ESE 02:02:39 10° NNE
Cosmos 1953 Rocket 3.6 01:54:38 16° S 01:58:09 82° E 02:02:37 10° N
STARLINK-1197 3.6 01:55:23 10° WNW 01:59:33 89° NNE 02:03:42 10° ESE
Cosmos 1937 Rocket 3.5 01:54:58 10° NNW 02:00:14 89° WSW 02:05:31 10° SSE
Cosmos 2369 4.0 01:55:55 16° S 02:00:28 66° ESE 02:06:05 10° NNE
NOSS 7 (H) 4.2 01:59:32 25° SSW 02:01:17 73° SE 02:04:14 10° NE
Meteor 2-10 Rocket 3.9 01:57:08 10° NNW 02:02:12 45° W 02:06:01 16° SSW
STARLINK-1198 3.5 02:00:21 10° WNW 02:04:30 85° SSW 02:08:39 10° SE
Cosmos 1709 Rocket 4.4 02:01:48 18° SW 02:06:08 47° WNW 02:12:03 10° N
STARLINK-1199 3.5 02:05:22 10° WNW 02:09:31 80° SW 02:13:39 10° SE
Iridium 2 4.5 02:07:52 10° N 02:11:33 51° E 02:15:13 10° SSE
USA 129 4.5 02:13:11 10° ENE 02:13:39 11° E 02:14:05 10° ESE
STARLINK-1210 3.5 02:10:20 10° WNW 02:14:28 74° SW 02:18:36 10° SE
Cosmos 1814 Rocket 4.4 02:11:06 11° S 02:16:16 65° ESE 02:21:34 10° NNE
STARLINK-1320 3.1 02:14:52 17° WSW 02:17:04 65° NNW 02:20:11 10° NE
Cosmos 2219 4.0 02:12:29 10° NW 02:17:23 31° WSW 02:22:14 10° SSW
STARLINK-1322 3.1 02:15:11 17° WSW 02:17:24 65° NNW 02:20:31 10° NE
STARLINK-1324 3.1 02:15:32 17° WSW 02:17:46 65° NNW 02:20:52 10° NE
STARLINK-1294 3.1 02:15:47 17° WSW 02:18:03 64° NNW 02:21:10 10° NE
STARLINK-1261 3.1 02:16:09 17° WSW 02:18:25 64° NNW 02:21:32 10° NE
STARLINK-1325 3.1 02:16:30 17° WSW 02:18:47 63° NNW 02:21:53 10° NE
STARLINK-1333 3.1 02:16:48 17° WSW 02:19:05 63° NNW 02:22:11 10° NE
Cosmos 1980 Rocket 2.8 02:13:57 10° S 02:19:22 53° ESE 02:24:51 10° NE
STARLINK-1334 3.1 02:17:07 16° WSW 02:19:26 63° NNW 02:22:32 10° NE
STARLINK-1219 3.5 02:15:19 10° WNW 02:19:27 68° SW 02:23:33 10° SE
STARLINK-1326 3.1 02:17:28 16° WSW 02:19:46 62° NNW 02:22:53 10° NE
STARLINK-1323 3.2 02:17:47 16° WSW 02:20:07 62° NNW 02:23:13 10° NE
STARLINK-1338 3.3 02:17:39 16° WSW 02:20:20 72° NNW 02:23:48 10° NE
STARLINK-1349 3.2 02:18:06 16° WSW 02:20:27 62° NNW 02:23:33 10° NE
STARLINK-1336 3.2 02:18:28 16° WSW 02:20:48 61° NNW 02:23:54 10° NE
STARLINK-1331 3.2 02:18:45 16° WSW 02:21:07 61° NNW 02:24:13 10° NE
STARLINK-1344 3.2 02:19:05 16° WSW 02:21:28 60° NNW 02:24:34 10° NE
CZ-4B R/B 4.4 02:19:57 10° ESE 02:21:46 15° ENE 02:23:36 10° NNE
STARLINK-1343 3.2 02:19:25 15° WSW 02:21:48 60° NNW 02:24:54 10° NE
Cosmos 1328 4.5 02:19:19 16° SW 02:22:06 40° WNW 02:25:53 10° N
STARLINK-1346 3.2 02:19:43 15° WSW 02:22:10 60° NNW 02:25:17 10° NE
STARLINK-1328 3.2 02:20:05 15° WSW 02:22:30 59° NNW 02:25:36 10° NE
STARLINK-1354 3.2 02:20:22 15° WSW 02:22:48 59° NNW 02:25:54 10° NE
STARLINK-1347 3.2 02:20:44 15° WSW 02:23:10 59° NNW 02:26:15 10° NE
STARLINK-1357 3.3 02:21:02 15° WSW 02:23:29 58° NNW 02:26:35 10° NE
STARLINK-1335 3.3 02:21:22 15° WSW 02:23:50 58° NNW 02:26:56 10° NE
ERS-2 2.1 02:20:20 10° S 02:23:58 70° WSW 02:27:39 10° NNW
STARLINK-1327 3.3 02:21:41 14° WSW 02:24:10 58° NNW 02:27:15 10° NE
STARLINK-1371 3.4 02:21:31 14° WSW 02:24:22 67° NNW 02:27:51 10° NE
STARLINK-1211 3.6 02:20:17 10° WNW 02:24:23 63° SW 02:28:29 10° SE
STARLINK-1340 3.3 02:22:01 14° WSW 02:24:31 57° NNW 02:27:37 10° NE
STARLINK-1356 3.3 02:22:21 14° WSW 02:24:52 57° NNW 02:27:57 10° NE
STARLINK-1345 3.3 02:22:41 14° WSW 02:25:12 57° NNW 02:28:17 10° NE
STARLINK-1355 3.3 02:22:59 14° WSW 02:25:31 56° NNW 02:28:38 10° NE
STARLINK-1321 3.3 02:23:18 14° WSW 02:25:51 56° NNW 02:28:56 10° NE
STARLINK-1358 3.3 02:23:39 14° WSW 02:26:13 56° NNW 02:29:18 10° NE
STARLINK-1341 3.4 02:23:29 14° WSW 02:26:25 65° NNW 02:29:54 10° NE
STARLINK-1332 3.3 02:23:57 14° WSW 02:26:32 55° NNW 02:29:37 10° NE
STARLINK-1348 3.4 02:24:18 13° WSW 02:26:54 55° NNW 02:29:59 10° NE
STARLINK-1330 3.4 02:24:36 13° WSW 02:27:13 55° NNW 02:30:18 10° NE
STARLINK-1363 3.4 02:24:56 13° WSW 02:27:33 54° NNW 02:30:38 10° NE
STARLINK-1337 3.4 02:25:15 13° WSW 02:27:54 54° NNW 02:30:58 10° NE
STARLINK-1342 3.4 02:25:35 13° WSW 02:28:14 54° NNW 02:31:19 10° NE
IRS-1C 4.3 02:23:05 10° N 02:28:20 58° WNW 02:33:25 11° SSW
STARLINK-1374 3.5 02:25:26 13° WSW 02:28:28 63° NNW 02:31:57 10° NE
STARLINK-1364 3.4 02:25:55 13° WSW 02:28:35 53° NNW 02:31:39 10° NE
STARLINK-1376 3.4 02:26:15 13° WSW 02:28:56 53° NNW 02:32:00 10° NE
STARLINK-1360 3.4 02:26:30 13° WSW 02:29:12 53° NNW 02:32:17 10° NE
STARLINK-1245 3.6 02:25:18 10° WNW 02:29:23 58° SW 02:33:26 10° SE
STARLINK-1361 3.4 02:26:56 12° WSW 02:29:38 52° NNW 02:32:42 10° NE
STARLINK-1367 3.4 02:27:10 12° WSW 02:29:55 53° NNW 02:33:01 10° NE
STARLINK-1366 3.4 02:27:33 12° WSW 02:30:16 52° NNW 02:33:20 10° NE
STARLINK-1339 3.5 02:27:27 12° WSW 02:30:33 61° NNW 02:34:02 10° NE
SL-4 R/B 3.5 02:26:55 10° WNW 02:31:27 40° N 02:35:49 10° ENE
STARLINK-1377 3.6 02:29:28 12° WSW 02:32:39 59° NNW 02:36:08 10° NE
Cosmos 2297 Rocket 3.1 02:28:08 10° NW 02:32:54 29° WSW 02:37:39 10° SSW
STARLINK-1233 3.7 02:30:17 10° WNW 02:34:20 53° SW 02:38:22 10° SE
STARLINK-1353 3.6 02:31:17 11° WSW 02:34:31 57° NNW 02:37:58 10° NE
STARLINK-1375 3.6 02:33:04 11° WSW 02:36:23 56° NNW 02:39:50 10° NE
Cosmos 2082 3.9 02:31:22 10° NW 02:36:51 52° WSW 02:42:16 10° S
Cosmos 540 Rocket 3.5 02:32:22 10° SSW 02:37:31 78° WNW 02:42:41 10° NNE
ATLAS CENTAUR R/B 4.1 02:37:45 10° NW 02:38:25 10° NNW 02:39:04 10° NNW
STARLINK-1350 3.7 02:35:22 10° WSW 02:38:47 54° NNW 02:42:13 10° NE
STARLINK-1204 3.8 02:35:18 10° WNW 02:39:18 49° SW 02:43:18 10° SE
Landsat 5 3.7 02:36:20 10° SSE 02:40:50 89° WSW 02:45:23 10° NNW
STARLINK-1352 3.8 02:37:46 10° WSW 02:41:13 52° NNW 02:44:41 10° NE
OE (NEXTSAT) 4.4 02:38:05 10° W 02:41:35 82° N 02:45:04 10° E
STARLINK-1241 4.4 02:37:30 10° NW 02:41:36 55° NNE 02:45:41 10° ESE
Cosmos 2278 3.7 02:36:21 10° SSW 02:42:00 86° WNW 02:47:42 10° NNE
Cosmos 1455 4.1 02:40:24 10° NW 02:42:17 14° W 02:44:10 10° WSW
CZ-2D R/B 3.5 02:38:40 10° N 02:42:45 71° WNW 02:46:56 10° SSW
STARLINK-1368 3.8 02:39:58 10° WSW 02:43:23 51° NNW 02:46:51 10° NE
Meteor 1-28 Rocket 3.6 02:40:15 10° S 02:43:52 43° W 02:47:30 10° NNW
USA 234 3.8 02:37:33 10° ENE 02:43:55 52° SE 02:50:15 10° SSW
Meteor 1-11 4.5 02:38:31 10° SSW 02:44:02 55° WNW 02:49:34 10° N
STARLINK-1238 3.9 02:40:16 10° WNW 02:44:14 45° SW 02:48:11 10° SSE
SL-16 R/B 4.2 02:41:24 10° WSW 02:44:30 14° W 02:47:38 10° WNW
STARLINK-1369 3.9 02:41:55 10° WSW 02:45:19 49° NNW 02:48:44 10° NE
STARLINK-1239 4.3 02:42:29 10° NW 02:46:35 59° NNE 02:50:41 10° ESE
Cosmos 2074 Rocket 4.2 02:41:13 10° SSW 02:47:23 57° WNW 02:53:37 10° N
STARLINK-1372 3.9 02:44:23 10° W 02:47:48 48° NNW 02:51:15 10° NE
ATLAS CENTAUR R/B 3.5 02:44:19 10° WNW 02:47:49 30° SW 02:55:04 10° SSE
IRIDIUM 106 4.4 02:42:46 10° S 02:47:59 90° W 02:53:14 10° N
Cosmos 2263 Rocket 3.2 02:43:26 10° NNW 02:48:55 51° ENE 02:54:20 10° SE
STARLINK-1201 4.0 02:45:18 10° WNW 02:49:12 41° SW 02:53:06 10° SSE
Cosmos 841 Rocket 3.8 02:44:42 10° SW 02:49:52 58° WNW 02:55:03 10° NNE
STARLINK-1378 4.0 02:46:37 10° W 02:50:02 46° NNW 02:53:28 10° NE
Cosmos 2322 Rocket 4.3 02:45:50 10° SSE 02:50:13 24° ESE 02:54:38 10° NE
Cosmos 372 Rocket 3.9 02:45:26 10° NNW 02:50:33 73° WSW 02:55:40 10° SSE
STARLINK-1329 4.0 02:47:08 10° W 02:50:33 46° NNW 02:53:59 10° NE
STARLINK-1365 4.1 02:47:54 10° W 02:51:18 44° NNW 02:54:43 10° NE
STARLINK-1240 4.2 02:47:28 10° NW 02:51:35 63° NNE 02:55:42 10° ESE
STARLINK-1379 4.0 02:48:51 10° W 02:52:15 45° NNW 02:55:41 10° NE
STARLINK-1362 4.1 02:49:26 10° W 02:52:51 45° NNW 02:56:17 10° NE
Cosmos 1892 3.6 02:49:38 10° S 02:53:22 51° E 02:57:06 10° NNE
COBE Rocket 4.4 02:49:19 10° SSW 02:53:56 41° W 02:58:43 10° NNW
STARLINK-1206 4.1 02:50:19 10° WNW 02:54:10 38° SW 02:58:00 10° SSE
Cosmos 1869 3.2 02:50:55 10° N 02:54:50 88° WSW 02:58:42 10° S
STARLINK-1373 4.1 02:51:45 10° W 02:55:10 44° NNW 02:58:36 10° NE
Cosmos 1400 Rocket 3.6 02:51:37 10° NNW 02:55:21 34° W 02:59:06 10° SSW
Cosmos 2221 2.5 02:51:54 10° NNW 02:56:13 75° W 03:00:33 10° S
STARLINK-1216 4.1 02:52:26 10° NW 02:56:34 67° NNE 03:00:42 10° ESE
STARLINK-1390 4.1 02:53:50 10° W 02:57:13 43° NNW 03:00:38 10° NE
Cosmos 2184 Rocket 4.4 02:53:01 10° SSW 02:58:58 48° WNW 03:04:57 10° N
STARLINK-1205 4.2 02:55:20 10° WNW 02:59:07 35° SW 03:02:53 10° SSE
SL-08 R/B 4.4 02:55:39 10° SSW 02:59:31 25° W 03:03:22 10° NW
CZ-4C R/B 3.5 02:56:24 10° S 02:59:48 43° W 03:03:18 10° NNW
